Location: Unspecified
(0.0000°N, 0.0000°E)
Time: 15:30:40
(UTC+02:00)

deb Ariane - Visible Passes

Search period start: 31 July 2014 00:00
Search period end: 10 August 2014 00:00
Orbit: 164 x 16784 km, 7.4° (Epoch: 31 July)

Date Brightness Start Highest point End Pass type
(mag) Time Alt. Az. Time Alt. Az. Time Alt. Az.
31 Jul 8.6 00:00:00 74° NNW 00:06:38 77° N 03:23:16 10° E visible
31 Jul 8.7 05:32:41 10° W 08:44:03 77° S 09:02:48 10° ESE visible
01 Aug 9.1 00:44:31 10° W 01:35:54 81° N 04:37:47 10° E visible
01 Aug 8.0 07:15:49 10° W 09:54:06 72° S 10:05:56 10° ESE visible
01 Aug 6.5 20:28:51 10° WNW 20:35:31 66° N 21:30:38 10° E visible
02 Aug 9.3 01:49:07 10° W 03:36:23 87° NNE 05:45:01 10° E visible
02 Aug 7.3 21:28:27 10° WNW 21:38:31 70° N 23:50:53 10° E visible
03 Aug 9.6 02:53:27 10° W 05:42:01 87° SSW 06:47:27 10° E visible
03 Aug 8.0 22:26:15 10° WNW 22:41:30 73° N 01:41:35 10° E visible
04 Aug 9.5 03:58:38 10° W 07:10:11 82° S 07:46:15 10° ESE visible
04 Aug 8.6 23:22:21 10° WNW 23:45:53 77° N 02:59:29 10° E visible
05 Aug 8.9 05:06:46 10° W 08:19:37 78° S 08:41:59 10° ESE visible
06 Aug 9.0 00:16:53 10° WNW 00:54:42 81° N 04:04:23 10° E visible
06 Aug 8.4 06:22:45 10° W 09:20:06 74° S 09:35:00 10° ESE visible
06 Aug 6.1 19:54:15 10° WNW 19:59:28 60° N 20:31:23 10° E visible
07 Aug 9.1 01:10:00 10° W 02:14:58 85° NNE 05:02:11 10° E visible
07 Aug 7.8 07:59:40 10° W 10:15:08 69° S 10:25:33 10° ESE visible
07 Aug 6.7 20:43:31 10° WNW 20:50:50 65° N 21:56:56 10° E visible
08 Aug 9.3 02:01:55 10° W 03:56:23 90° SSW 05:55:14 10° E visible
08 Aug 7.3 21:30:51 10° WNW 21:40:58 69° N 23:50:14 10° E visible
09 Aug 9.5 02:52:59 10° W 05:35:15 85° SSW 06:44:35 10° E visible
09 Aug 7.8 22:16:18 10° WNW 22:30:13 73° N 23:18:31 37° E visible
